Flag for USA

Past Weather in Sam Houston High School Baseball Field, Texas, USA — Yesterday and Last 2 Weeks

Now
76 °F

Light rain. Fog.


Feels Like: 76 °F
Forecast: 82 / 74 °F
Wind: 23 mph from Northeast

Location: Houston Hobby Airport
Current Time: Sep 22, 2020 at 1:13:30 am
Latest Report: Sep 22, 2020 at 12:53 am
Visibility: 4 mi
Pressure29.88 "Hg
Humidity: 91%
Dew Point: 73 °F
Location of Sam Houston High School Baseball FieldLocation

Past Weather in Sam Houston High School Baseball Field — Graph

°F

Sam Houston High School Baseball Field Temperature Yesterday

Maximum temperature yesterday: 78 °F (at 8:39 pm)
Minimum temperature yesterday: 71 °F (at 2:12 am)
Average temperature yesterday: 75 °F

High & Low Weather Summary for the Past Weeks

 TemperatureHumidityPressure
High96 °F (Sep 12, 2:53 pm)94% (Sep 21, 3:41 pm)30.11 "Hg (Sep 21, 3:41 pm)
Low69 °F (Sep 20, 6:53 am)27% (Sep 18, 2:53 pm)29.81 "Hg (Sep 8, 3:53 am)
Average82 °F70%29.94 "Hg
* Reported Sep 6 11:53 pm — Sep 21 11:53 pm, Sam Houston High School Baseball Field. Weather by CustomWeather, © 2020

Note: Actual official high and low records may vary slightly from our data, if they occured in-between our weather recording intervals... More about our weather records

Sam Houston High School Baseball Field Weather History for the Previous 24 Hours

Scroll right to see more
 ConditionsComfort  
Time TempWeatherWind HumidityBarometerVisibility
11:53 pm
Mon, Sep 21
76 °FMostly cloudy.21 mph91%29.89 "Hg10 mi
11:16 pm76 °FLight rain. Fog.18 mph91%29.88 "Hg6 mi
10:53 pm77 °FLight rain. Mostly cloudy.16 mph88%29.90 "Hg10 mi
10:36 pm77 °FLight rain. Fog.18 mph90%29.88 "Hg4 mi
10:15 pm77 °FHeavy rain. Fog.21 mph90%29.87 "Hg2 mi
9:53 pm77 °FHeavy rain. Fog.18 mph90%29.89 "Hg3 mi
9:37 pm77 °FRain. Fog.22 mph90%29.87 "Hg2 mi
9:03 pm77 °FHeavy rain. Fog.21 mph94%29.86 "Hg2 mi
8:39 pm78 °FHeavy rain. Fog.16 mph90%29.85 "Hg2 mi
8:17 pm77 °FRain. Fog.23 mph90%29.84 "Hg3 mi
8:04 pm77 °FHeavy rain. Fog.21 mph90%29.84 "Hg2 mi
7:53 pm76 °FThunderstorms. Fog.24 mph91%29.84 "Hg6 mi
6:53 pm76 °FLight rain. Fog.18 mph91%29.85 "Hg4 mi
6:35 pm76 °FHeavy rain. Fog.16 mph91%29.85 "Hg2 mi
6:10 pm76 °FLight rain. Fog.16 mph91%29.85 "Hg3 mi
5:53 pm76 °FHeavy rain. Fog.20 mph88%29.86 "Hg2 mi
5:16 pm75 °FLight rain. Overcast.15 mph90%29.84 "Hg8 mi
4:53 pm75 °FHeavy rain. Fog.14 mph90%29.86 "Hg2 mi
4:34 pm75 °FHeavy rain. Fog.15 mph90%29.85 "Hg2 mi
4:17 pm75 °FLight rain. Fog.17 mph90%29.84 "Hg4 mi
4:00 pm75 °FHeavy rain. Fog.17 mph90%29.85 "Hg1 mi
3:41 pm74 °FHeavy rain. Fog.17 mph94%29.86 "Hg1 mi
3:23 pm75 °FHeavy rain. Fog.18 mph90%29.86 "Hg1 mi
3:00 pm74 °FRain. Fog.20 mph91%29.85 "Hg3 mi
2:40 pm74 °FHeavy rain. Fog.17 mph91%29.86 "Hg1 mi
2:18 pm75 °FRain. Fog.16 mph88%29.87 "Hg2 mi
2:03 pm75 °FHeavy rain. Fog.15 mph88%29.88 "Hg2 mi
1:25 pm75 °FHeavy rain. Overcast.14 mph85%29.90 "Hg1 mi
12:53 pm75 °FOvercast.15 mph85%29.91 "Hg10 mi
11:53 am74 °FLight rain. Overcast.21 mph88%29.92 "Hg10 mi
10:53 am74 °FLight rain. Fog.24 mph88%29.92 "Hg4 mi
9:53 am73 °FOvercast.20 mph88%29.92 "Hg10 mi
9:37 am73 °FLight rain. Fog.18 mph88%29.91 "Hg2 mi
9:05 am73 °FOvercast.18 mph88%29.91 "Hg10 mi
7:53 am73 °FLow clouds.22 mph84%29.90 "Hg10 mi
6:53 am73 °FMostly cloudy.17 mph84%29.89 "Hg10 mi
5:53 am72 °FMostly cloudy.17 mph87%29.89 "Hg10 mi
4:53 am72 °FMostly cloudy.21 mph87%29.88 "Hg10 mi
3:53 am72 °FMostly cloudy.17 mph87%29.89 "Hg10 mi
2:53 am71 °FLight rain. Fog.20 mph90%29.90 "Hg6 mi
2:12 am71 °FHeavy rain. Fog.18 mph90%29.90 "Hg2 mi
1:53 am72 °FLight rain. Mostly cloudy.18 mph87%29.92 "Hg10 mi
Weather by CustomWeather, © 2020

See weather overview